Regional Weather Roundup
Issued by NWS Glasgow, MT

Home | Current Version | Previous Version | Text Only | Print | Product List | Glossary On
Versions: 1 2 3 4 5 6 7 8 9 10 11 12 13 14 15 16 17 18 19 20 21 22 23 24 25 26 27 28
000
ASUS45 KGGW 031115
RWRGGW
HOURLY REGIONAL WEATHER ROUNDUP FOR NORTHEAST MONTANA
NATIONAL WEATHER SERVICE GLASGOW MONTANA
500 AM MDT TUE AUG 03 2021

NOTE: "FAIR" INDICATES FEW OR NO CLOUDS BELOW 12,000 FEET WITH NO
SIGNIFICANT WEATHER AND/OR OBSTRUCTIONS TO VISISBILITY.

NORTHEAST MONTANA


CITY           SKY/WX    TMP DP  RH WIND       PRES   REMARKS
GLASGOW        CLOUDY    73  46  38 E10       30.00F
PLENTYWOOD       N/A     67  52  58 SW6G14      N/A
WOLF POINT     PTCLDY    66  47  50 E6        30.02S
JORDAN           N/A     67  39  35 CALM      30.02S
SIDNEY         MOCLDY    62  49  62 N3        30.03S
GLENDIVE       PTCLDY    67  44  43 NE6       30.04S
MALTA            N/A     69  56  62 SW3         N/A

FORT PECK REPORTS


CITY           SKY/WX    TMP DP  RH WIND       PRES   REMARKS
FORT PECK        N/A     72  44  36 N7          N/A
THE PINES        N/A     72  47  40 E3          N/A

SOUTHEAST MONTANA


CITY           SKY/WX    TMP DP  RH WIND       PRES   REMARKS
BILLINGS       CLOUDY    72  55  55 W10       30.11S
MILES CITY     PTCLDY    68  39  34 N5        30.00S
BAKER          CLEAR     58  43  57 E9        30.06S
LIVINGSTON     CLOUDY    63  59  87 NW12      30.22S

CENTRAL MONTANA


CITY           SKY/WX    TMP DP  RH WIND       PRES   REMARKS
HAVRE          CLOUDY    68  66  93 CALM      30.04F
LEWISTOWN      CLOUDY    65  60  84 S6        30.14F
GREAT FALLS    CLOUDY    69  58  67 SW12      30.11S
CUT BANK       PTCLDY    63  58  83 N3        30.12R HAZE
HELENA         MOCLDY    64  59  83 W5        30.18F
BUTTE          PTCLDY    53  52  96 E3        30.31S FOG
BOZEMAN        MOCLDY    61  59  93 SE5       30.24S

WESTERN MONTANA


CITY           SKY/WX    TMP DP  RH WIND       PRES   REMARKS
MISSOULA       PTCLDY    66  63  90 CALM      30.19R FOG
KALISPELL      NOT AVBL

NORTH DAKOTA


CITY           SKY/WX    TMP DP  RH WIND       PRES   REMARKS
WILLISTON      PTSUNNY   66  49  54 E8        30.04F
DICKINSON      CLEAR     59  52  77 S8        30.04F
MINOT          PTCLDY    58  50  75 CALM      30.03S
BISMARCK       PTCLDY    62  55  77 NE3       30.06S

SOUTHERN SASKATCHEWAN


CITY           SKY/WX    TMP DP  RH WIND       PRES   REMARKS
REGINA         MOCLDY    66  52  59 E5        30.02F
MOOSE JAW      CLOUDY    73  52  46 SW12      30.00F
ESTEVAN        PTCLDY    59  52  77 N5        30.04S
SWIFT CURRENT  CLOUDY    73  45  35 E8        30.02F




USA.gov is the U.S. government's official web portal to all federal, state and local government web resources and services.